GFSSE_850_rhum_093.txt.gz
RH
57 62 70 58 54 59 55 53 52 56 58 53 53 44 34 42 22 21 25 40 54 62 59 40 38 27 22 23 22 22 22 22 26 28 31 50 49 38 30 28 52 76 65
71 57 59 54 47 59 62 57 58 65 62 58 55 49 44 44 24 32 43 61 71 64 50 31 22 22 25 27 26 27 25 24 25 28 57 75 95 90 88 84 88 93 95
80 60 56 52 53 59 58 62 59 62 64 60 56 57 56 32 34 52 50 68 69 61 33 24 26 27 26 23 22 19 17 16 15 16 51 90 74 98 89 91 92 89 89
76 60 58 58 48 44 43 56 61 62 66 62 61 59 50 30 43 51 54 72 65 36 25 26 23 21 25 21 20 19 18 16 16 19 85 88 93 99 94 94 93 95 88
76 68 61 60 60 57 53 60 61 65 68 64 64 59 36 35 49 51 67 65 40 31 30 35 25 43 43 24 22 19 17 16 16 16 36 76 92 98 80 66 70 76 59
63 79 60 57 58 58 62 62 59 65 68 67 59 50 30 33 43 63 58 41 40 37 43 46 45 52 49 34 32 21 18 18 18 19 19 23 56 34 19 17 16 15 15
62 88 88 63 65 56 60 61 61 68 69 54 38 25 23 35 47 58 44 41 72 82 63 57 60 59 57 49 46 27 22 21 22 22 31 54 43 20 16 15 14 14 14
62 70 87 87 68 76 69 61 64 66 58 35 30 26 21 25 41 44 39 69 83 68 59 60 62 62 62 57 53 36 25 24 24 24 35 50 21 18 17 16 16 15 15
62 66 68 94 94 72 70 76 57 46 36 35 33 28 20 27 40 41 58 62 60 60 59 60 64 65 63 56 50 39 30 27 26 31 57 54 21 22 21 20 18 17 17
51 72 81 88 68 71 75 94 62 45 38 37 31 27 25 28 44 61 45 54 60 60 60 61 65 66 63 55 49 38 32 31 29 29 62 37 32 33 26 23 22 21 20
50 61 72 78 85 78 85 87 72 62 47 37 30 38 38 43 53 59 53 61 62 62 59 60 67 69 62 54 47 37 33 33 33 47 63 40 31 27 25 25 24 23 23
69 63 65 81 87 86 85 80 72 82 62 41 48 67 53 53 43 48 66 66 65 62 60 62 64 66 58 52 46 37 33 34 34 37 48 46 32 31 27 25 24 24 25
96 84 84 91 80 92 91 94 93 93 67 52 55 63 49 52 45 61 70 69 66 62 62 61 64 61 54 49 36 34 34 35 34 51 37 40 37 36 30 29 27 28 28
99 95 86 81 82 88 95 100 100 90 79 68 66 72 65 56 54 59 67 65 62 60 56 61 60 58 52 39 32 33 36 35 34 40 37 39 36 37 36 37 32 31 30
98 95 90 89 87 95 99 99 99 93 81 84 77 84 57 58 60 61 63 60 56 44 45 51 53 53 46 36 33 35 37 37 36 38 50 39 34 33 38 39 33 33 34
99 92 82 85 92 82 84 86 100 88 83 88 90 76 64 65 57 63 58 49 47 50 55 54 57 55 55 45 35 35 38 38 38 38 38 39 34 34 35 39 37 36 37
98 100 100 100 96 98 89 98 100 100 95 93 90 80 76 67 55 52 47 46 51 51 56 58 62 61 61 59 36 39 40 39 40 39 37 36 36 37 35 39 39 37 38
99 100 100 100 98 94 100 100 100 100 98 94 83 87 86 61 51 49 47 48 52 53 56 57 64 66 65 64 40 40 40 44 45 40 37 37 39 38 37 41 40 39 40
99 98 99 96 100 100 100 99 100 96 92 85 87 75 77 66 48 45 47 50 52 57 58 58 66 67 66 67 42 42 41 46 46 43 42 43 43 41 40 42 43 42 42
99 100 99 98 100 100 98 97 98 95 87 90 81 72 76 68 48 48 48 52 57 63 64 60 69 71 72 68 44 43 43 46 49 53 51 48 50 50 45 45 44 44 45
98 94 99 99 100 96 100 99 100 94 96 70 72 66 68 69 64 59 57 57 57 65 55 59 73 75 76 61 46 45 46 46 48 50 56 56 55 55 56 53 48 47 49
98 97 99 97 100 100 100 100 99 94 69 52 69 73 71 75 60 58 65 67 58 66 63 64 70 76 77 66 51 47 52 51 48 47 50 55 58 60 59 59 58 52 51
98 100 97 93 100 99 100 98 90 72 60 68 87 68 75 63 62 62 80 70 62 58 52 58 71 78 81 74 66 58 55 58 50 48 49 50 53 58 61 60 60 60 55
93 95 100 99 100 99 99 92 76 71 73 76 87 77 72 62 58 70 66 64 57 56 51 62 69 77 86 85 76 71 67 59 54 56 52 49 52 55 58 62 60 61 62
98 94 94 99 100 100 95 82 71 80 85 84 76 73 58 55 60 61 69 76 62 54 60 74 81 88 88 90 91 84 72 69 66 61 61 56 56 57 61 61 62 62 65
98 100 98 98 99 100 100 90 75 69 83 79 75 64 54 54 58 78 75 68 63 69 71 68 69 79 86 97 96 96 90 82 75 76 81 62 69 65 72 65 67 65 66

GFSSE_850_rhum_099.txt.gz
RH
58 71 70 60 66 71 67 57 50 40 40 40 39 33 30 31 32 38 45 53 55 55 55 49 42 36 36 38 43 40 32 28 31 33 33 43 69 75 77 84 98 95 89
56 74 69 62 63 66 73 64 52 42 41 43 40 36 36 32 35 31 48 50 81 54 58 49 40 32 28 25 22 22 21 27 25 24 25 30 47 60 78 83 91 81 78
59 69 72 68 63 66 72 68 56 50 46 46 42 38 35 34 35 29 40 82 59 43 54 35 32 22 20 19 22 24 23 32 77 82 92 95 86 74 66 67 59 57 54
62 75 85 69 64 66 83 71 62 53 49 52 52 40 35 33 40 39 36 82 52 40 34 28 22 21 23 25 25 26 30 53 61 75 83 94 98 84 83 77 61 42 32
69 76 79 82 69 66 86 73 70 56 53 64 54 37 38 31 46 52 36 68 55 36 22 22 24 24 21 17 14 23 51 68 69 68 77 90 99 92 77 62 41 58 60
67 76 83 87 85 75 80 79 75 66 57 61 51 35 37 50 57 66 61 44 52 25 21 22 18 16 16 16 16 28 60 67 66 69 84 89 95 70 37 30 26 18 22
64 83 64 71 76 78 76 80 84 73 65 61 51 41 41 65 80 66 63 59 46 22 20 18 19 20 18 16 19 36 57 59 60 70 78 91 68 24 22 16 16 15 14
38 87 52 61 77 59 61 95 94 76 72 63 53 41 42 55 76 67 72 56 33 22 24 22 22 20 17 18 18 37 62 61 60 66 76 90 18 19 16 16 18 19 23
40 46 64 55 66 66 51 72 98 84 76 66 54 47 46 45 58 70 68 42 28 25 36 28 30 23 21 20 22 38 63 61 61 68 78 72 29 24 22 18 18 19 21
46 53 72 62 71 65 84 84 82 96 82 74 55 52 40 51 59 73 53 39 31 34 45 40 42 37 26 24 26 38 63 63 63 65 77 38 23 27 20 19 19 19 19
59 70 66 73 75 73 97 81 88 86 92 75 64 53 41 64 46 64 78 45 42 49 54 50 48 41 32 29 30 53 63 61 63 68 71 27 24 26 25 21 22 22 22
86 83 92 75 64 98 86 81 88 98 99 86 68 57 60 64 67 92 77 73 62 61 59 52 50 44 36 33 44 65 64 65 65 74 47 28 31 31 24 23 25 24 24
73 83 85 88 68 80 91 77 99 77 82 99 81 68 77 60 79 94 80 88 71 67 65 60 56 50 75 69 65 72 73 67 66 78 46 34 36 45 33 28 25 25 26
80 92 89 89 88 78 82 83 85 78 79 99 87 73 79 69 82 96 82 80 71 70 68 67 62 80 80 74 75 75 74 64 66 84 54 45 42 46 33 31 28 26 28
89 99 88 92 93 91 92 99 89 87 77 98 78 72 89 70 75 87 92 78 93 92 74 87 83 80 82 77 75 79 74 68 71 80 86 40 60 47 47 43 38 29 29
95 100 96 91 93 88 90 96 94 89 76 86 83 78 82 72 81 87 90 85 85 87 87 86 78 81 82 74 77 75 72 72 72 77 92 58 55 61 56 62 61 46 34
97 99 99 97 92 91 91 94 94 91 87 80 92 79 69 73 88 79 85 79 75 79 80 76 84 81 73 68 72 71 72 73 73 75 86 96 76 67 64 73 86 42 36
100 96 98 95 93 96 88 86 100 99 88 90 96 88 82 86 94 82 85 76 75 77 81 78 81 72 65 59 57 59 63 70 74 78 74 84 92 94 61 58 46 39 38
100 95 91 90 98 97 90 82 88 93 94 96 96 91 88 89 92 86 84 66 79 84 80 79 75 67 62 56 56 56 58 61 73 76 76 80 85 87 94 70 43 41 37
100 88 94 98 94 87 92 94 93 91 95 96 100 100 95 86 86 83 54 67 80 81 80 79 72 69 67 61 53 56 61 59 66 72 80 81 82 87 90 89 74 42 41
96 87 88 98 99 92 98 95 99 97 100 100 100 98 98 91 96 64 64 89 83 81 79 75 74 74 72 68 57 60 66 67 68 68 80 84 88 91 86 86 86 78 69
98 85 85 98 100 95 98 100 100 100 100 100 100 99 97 98 88 89 82 80 75 77 77 78 79 79 74 74 63 63 65 67 67 47 61 68 78 82 83 75 80 82 71
100 94 82 93 100 99 99 98 98 100 100 100 100 100 100 100 84 86 77 82 68 74 73 73 78 82 81 80 74 66 62 58 58 62 53 48 58 67 77 74 73 77 76
100 99 98 86 96 99 99 97 97 99 99 100 100 100 100 100 84 76 87 78 58 72 80 66 59 63 80 84 76 72 67 68 66 62 64 62 62 71 72 72 69 71 74
94 100 98 99 92 98 99 93 95 90 90 91 92 96 100 90 86 90 87 66 57 78 87 64 59 64 66 76 80 74 70 71 70 70 72 71 71 70 70 72 66 70 71
96 100 100 94 92 96 100 99 87 86 91 95 100 99 96 100 97 82 80 72 65 68 65 60 58 64 63 71 72 83 85 84 80 85 82 81 78 74 72 69 76 72 73

GFSSE_850_rhum_105.txt.gz
RH
49 45 50 57 54 47 45 46 40 34 36 36 34 34 40 44 46 61 64 58 53 45 46 40 47 70 78 73 78 86 83 72 74 79 89 88 84 87 82 76 81 83 83
59 53 52 61 56 49 49 48 43 35 38 36 34 33 37 39 45 55 49 43 41 43 37 34 46 68 76 69 75 73 51 60 64 71 78 91 93 92 86 88 91 92 95
26 28 45 61 59 54 54 52 49 39 40 38 36 32 36 39 39 40 38 45 45 39 32 36 42 59 59 62 63 40 33 40 52 64 62 60 75 80 81 99 100 99 99
30 30 27 45 68 60 58 57 54 46 43 42 38 42 37 46 43 37 46 44 44 42 31 30 32 38 38 27 24 25 35 44 39 46 53 76 72 65 95 98 97 86 84
23 28 30 43 44 63 60 61 61 60 50 46 42 39 46 44 54 49 49 43 37 38 31 23 22 20 20 27 56 77 84 91 82 67 72 76 97 86 94 81 51 57 66
23 32 41 38 41 42 54 64 64 64 54 53 49 43 40 53 54 68 61 49 35 30 29 17 19 22 25 55 74 84 90 98 90 71 65 75 85 90 39 29 38 48 53
29 27 39 36 39 47 41 63 67 69 66 57 74 50 61 55 63 84 78 63 41 22 18 18 25 38 48 62 74 82 86 92 87 74 60 48 72 39 21 29 40 39 43
41 34 34 36 42 44 48 64 74 72 76 70 76 71 67 58 63 81 80 74 37 18 18 21 25 36 42 68 72 76 80 79 77 60 65 31 24 20 22 20 21 18 16
36 39 36 37 37 47 48 71 89 91 86 87 89 77 84 68 72 56 71 82 27 20 16 15 20 42 54 64 68 74 76 73 64 56 26 17 18 21 18 18 18 21 22
39 42 37 35 38 41 45 54 88 92 90 94 96 70 93 77 75 90 75 57 27 17 15 17 17 30 54 59 61 66 70 68 64 40 17 20 18 17 17 17 18 22 20
51 57 58 52 57 58 55 58 60 69 78 82 93 74 98 85 77 86 83 54 25 18 18 17 17 22 33 57 64 66 67 65 56 30 20 19 19 18 18 20 20 19 21
54 61 60 66 70 60 67 64 70 73 92 100 92 73 98 73 60 83 89 52 23 21 19 18 18 22 50 61 64 66 65 63 61 59 23 21 22 21 22 19 22 26 22
58 64 63 74 77 68 70 69 64 77 87 96 90 80 90 90 78 93 85 41 25 22 22 20 21 26 43 60 64 70 67 67 65 66 25 23 27 25 22 22 22 23 24
57 65 70 79 77 76 67 70 74 85 92 100 92 82 80 99 85 100 70 33 28 28 28 25 24 29 56 63 64 71 68 66 65 65 26 25 26 28 25 23 23 23 23
60 70 75 80 78 84 71 77 85 87 100 100 100 94 93 85 72 92 57 36 35 38 39 30 28 33 61 61 59 66 70 69 66 66 38 28 29 26 33 24 23 24 25
63 67 79 83 87 97 82 87 82 80 91 94 95 98 87 77 92 83 51 40 43 46 44 36 31 36 66 66 66 67 70 71 66 68 49 27 28 39 30 23 23 25 27
60 73 85 86 93 99 98 90 87 85 86 97 98 99 91 98 88 77 50 48 52 51 49 43 48 53 58 73 73 73 74 70 70 68 60 32 29 30 26 24 25 26 28
66 77 83 83 91 98 95 99 89 94 88 87 99 96 93 76 75 83 58 52 55 57 54 64 71 81 77 73 66 71 75 74 73 74 70 70 47 30 29 29 31 31 32
62 73 79 84 96 99 98 96 100 94 96 80 84 95 88 76 77 78 74 66 59 62 60 70 88 83 83 77 71 73 73 75 76 77 76 75 68 62 48 31 31 33 35
58 67 74 90 98 96 95 99 99 98 89 84 88 93 91 75 72 68 70 75 68 65 67 76 86 81 79 71 70 72 73 73 75 76 80 80 77 74 63 54 49 47 43
57 65 64 85 99 93 94 95 99 99 99 87 88 81 81 76 70 74 71 69 66 69 71 73 89 80 76 69 64 63 64 68 71 73 79 80 83 78 68 61 50 55 59
55 54 56 90 95 93 89 84 80 86 97 99 87 83 80 83 79 83 76 73 75 74 73 80 86 78 70 61 57 58 60 62 62 63 75 79 81 82 74 65 62 55 51
55 42 58 93 80 96 94 86 87 90 95 99 99 100 92 83 86 87 84 73 77 76 82 85 82 75 65 60 62 57 65 65 63 63 64 68 70 78 80 75 60 60 54
49 41 63 98 86 86 100 100 99 95 89 96 95 99 95 94 89 85 92 86 82 85 95 86 85 72 64 64 66 57 60 61 63 63 62 61 59 58 58 60 56 52 52
53 33 59 98 100 87 100 100 98 86 88 90 96 100 100 93 96 96 94 90 88 85 80 80 68 71 71 73 75 65 62 65 70 68 69 64 63 63 64 64 64 59 59
60 36 71 99 100 92 100 100 98 97 99 97 100 99 100 100 98 100 97 94 91 86 79 79 82 79 78 81 70 71 66 64 66 67 66 65 62 66 69 71 74 73 70

GFSSE_850_rhum_108.txt.gz
RH
45 36 30 51 55 46 42 40 32 30 31 35 40 52 68 71 78 75 66 59 57 59 48 52 61 64 65 66 73 84 73 73 72 77 78 87 85 71 70 68 73 78 78
22 21 24 41 55 50 46 43 34 35 35 34 32 37 56 68 71 71 70 66 59 50 45 48 58 67 69 71 81 87 77 71 72 84 80 81 85 83 81 79 80 85 85
22 20 22 31 57 52 49 47 37 37 38 36 35 47 58 62 67 65 59 53 49 43 39 36 53 73 76 75 82 72 56 72 60 71 81 81 82 85 89 88 85 86 90
17 18 21 31 48 56 53 50 45 37 42 40 38 39 46 50 55 47 42 41 43 41 33 36 49 77 73 70 69 52 56 63 64 69 67 72 80 86 96 98 98 98 98
17 19 21 26 36 60 57 55 52 46 42 44 41 39 39 35 32 39 38 44 42 36 33 40 52 64 60 39 27 32 35 34 45 45 57 66 71 92 89 97 98 94 98
18 20 22 25 32 40 59 60 57 54 46 45 50 47 44 34 31 29 38 39 42 34 31 35 50 35 29 36 72 58 74 61 45 37 57 52 76 81 81 66 64 65 77
19 21 25 28 31 39 51 61 65 64 61 56 53 55 45 73 41 27 30 41 43 35 26 31 30 38 47 65 84 71 79 80 74 66 37 46 73 76 66 27 40 56 48
21 22 31 39 40 45 63 72 79 74 71 65 63 60 56 93 53 24 45 58 77 37 22 22 30 61 78 90 89 78 77 80 76 50 30 22 46 35 28 24 32 20 18
21 24 28 35 38 45 50 72 88 89 83 86 76 71 65 84 77 35 31 61 64 28 26 24 52 68 92 99 85 70 75 76 69 52 29 21 24 24 16 16 18 19 18
28 30 33 36 37 40 42 52 74 87 90 96 96 77 78 70 74 55 36 40 44 25 26 33 54 72 82 74 73 74 68 69 57 30 23 19 21 20 18 21 19 17 26
35 40 46 47 50 42 45 49 63 100 93 97 100 97 87 78 65 65 51 52 37 25 22 35 62 71 71 74 74 68 65 65 57 20 18 20 24 37 21 20 18 18 18
38 44 53 59 65 64 64 55 61 87 89 94 99 100 98 90 79 75 98 67 27 20 21 35 62 64 66 66 69 68 64 62 36 20 21 21 23 21 23 18 18 18 19
38 53 57 63 64 70 68 60 73 72 73 76 80 91 98 93 82 80 98 82 28 22 21 40 61 60 64 66 68 66 63 63 64 51 21 20 18 20 18 18 19 19 20
38 54 60 67 74 72 62 66 66 65 69 79 96 79 99 91 83 100 80 88 28 20 21 32 53 54 65 68 64 66 62 67 66 62 25 22 18 17 17 19 20 21 21
46 52 60 69 76 74 62 72 70 73 78 88 95 100 79 84 79 98 98 83 24 21 20 23 42 49 64 69 73 68 69 69 66 64 26 23 20 17 18 19 22 23 24
49 54 61 72 76 62 78 75 78 74 99 97 98 98 96 72 89 93 96 69 24 22 22 23 25 50 63 70 70 72 71 72 68 68 47 25 21 19 19 22 23 25 25
46 54 61 65 72 64 89 85 81 88 100 100 100 95 91 67 97 98 92 55 26 24 23 22 29 61 65 68 67 70 71 72 71 66 49 30 24 22 21 21 23 25 28
43 50 59 71 72 69 90 92 91 84 100 100 99 98 91 85 78 82 97 43 29 30 30 26 34 65 67 68 68 71 72 71 72 67 65 34 32 26 24 24 27 28 30
36 50 60 73 69 72 93 90 96 90 95 91 98 99 92 80 84 85 95 39 34 41 39 31 37 65 71 67 75 75 73 75 73 71 72 66 57 44 33 29 32 33 33
43 54 66 71 62 77 96 94 96 100 93 98 92 98 95 88 92 79 86 41 41 50 44 38 35 46 57 56 73 77 75 77 75 76 74 76 73 72 66 56 41 38 39
52 58 64 61 59 77 90 97 98 100 96 100 99 96 87 90 90 77 75 44 48 53 50 47 63 74 81 78 68 76 75 76 76 76 80 78 77 79 79 73 65 58 55
48 59 62 50 61 74 85 95 100 99 99 90 92 94 93 87 85 79 74 50 48 58 55 58 71 86 86 80 69 74 75 75 75 76 78 76 78 81 83 77 70 61 55
53 55 57 46 54 69 87 94 100 100 100 100 98 99 99 93 85 81 74 68 55 60 62 61 80 86 84 77 67 64 65 63 64 70 69 68 78 78 78 77 71 63 57
52 58 47 50 52 75 87 86 86 86 97 100 98 92 97 90 82 80 78 79 83 65 66 66 76 88 82 74 66 58 59 56 62 65 61 64 69 71 65 61 59 61 60
53 58 48 56 59 74 85 92 91 90 94 97 99 99 100 100 91 87 84 80 91 76 70 75 77 89 82 70 60 60 60 60 62 57 59 58 61 62 61 59 60 62 64
59 60 50 59 63 78 88 99 98 99 99 99 96 98 100 99 100 96 84 81 91 80 76 80 86 85 86 74 62 64 66 68 66 64 68 68 66 61 61 64 66 67 69

GFSSE_850_rhum_111.txt.gz
RH
25 18 18 36 48 50 49 46 37 39 53 58 59 62 66 66 62 55 53 56 60 55 51 55 57 58 66 70 67 69 67 81 75 77 80 83 85 80 72 67 65 70 72
21 18 18 30 51 49 46 45 38 42 50 58 61 65 69 70 70 63 61 59 57 54 50 57 61 71 74 63 69 73 64 83 76 82 79 84 93 73 70 71 74 83 78
20 20 18 24 52 52 46 44 39 42 48 53 60 64 72 74 73 68 64 64 64 52 50 55 60 68 66 63 81 82 70 72 73 71 74 79 81 81 80 79 84 81 82
22 21 20 23 46 55 49 48 38 40 43 49 62 71 78 80 76 72 71 67 60 53 47 54 60 71 74 79 85 81 68 76 72 70 71 68 82 86 86 84 85 87 88
23 21 20 23 30 56 53 50 45 39 44 44 48 60 70 71 72 70 65 54 49 50 43 45 63 77 79 82 77 70 78 75 74 72 57 60 81 90 91 84 89 84 98
18 20 22 25 27 45 60 56 52 47 42 43 47 47 60 68 66 58 48 39 45 45 46 50 59 77 73 74 67 64 72 66 66 56 52 60 60 76 75 50 47 79 88
17 18 20 27 30 37 49 64 60 57 51 49 50 48 48 61 57 61 52 52 42 46 64 44 55 62 58 38 32 36 42 38 36 37 43 62 71 39 74 42 52 54 81
19 21 22 29 33 37 48 54 64 67 62 58 69 62 53 44 62 70 56 65 38 52 46 40 48 37 30 42 52 69 68 71 58 53 31 34 70 92 62 40 34 55 32
23 25 25 30 34 43 51 61 64 70 75 74 82 79 59 63 67 60 73 75 40 90 62 39 30 37 54 69 79 74 80 77 60 33 26 45 46 65 50 28 35 18 30
27 27 27 32 37 41 48 50 68 73 86 88 84 69 57 64 75 65 81 81 43 34 38 38 49 73 70 57 77 89 86 73 45 39 29 27 33 51 49 50 39 33 24
33 31 31 36 39 40 43 46 53 61 91 98 96 80 72 68 72 80 70 72 78 27 31 47 79 86 86 72 70 82 73 64 44 36 23 23 26 58 39 43 28 27 27
32 28 33 42 47 51 47 49 53 55 81 97 100 99 84 71 77 81 70 56 80 31 35 58 86 90 90 70 87 77 64 62 51 22 27 21 23 34 28 19 19 21 30
28 30 37 46 60 63 65 67 67 59 76 95 100 98 93 76 82 75 69 60 89 36 48 79 88 77 73 64 78 62 66 53 26 22 24 22 30 32 18 18 19 20 22
29 32 42 54 68 67 72 72 60 58 69 82 97 98 99 87 87 72 64 56 82 35 59 77 79 69 69 64 64 67 65 64 62 40 24 25 28 25 20 23 20 20 20
30 34 46 58 72 77 75 74 58 64 72 72 83 99 86 99 95 81 71 46 90 35 52 76 71 68 70 72 71 64 63 66 68 59 25 25 25 21 21 23 22 21 20
30 32 47 56 72 79 76 70 66 68 67 71 75 86 99 96 92 89 91 61 89 34 40 69 70 71 74 73 65 62 65 68 69 66 32 30 26 19 20 22 24 22 22
29 33 43 55 74 78 72 69 76 70 72 82 88 100 99 99 94 95 78 63 84 29 28 66 69 71 73 70 65 68 70 71 70 67 62 33 24 20 20 22 23 22 23
30 35 48 62 74 75 72 80 81 76 76 82 95 96 100 100 92 100 81 60 88 29 25 54 65 66 72 67 70 72 72 72 73 70 67 43 30 25 23 23 24 23 25
28 41 53 69 72 72 71 86 93 89 84 94 100 100 100 100 91 100 89 70 90 33 26 34 49 66 68 68 70 69 72 72 73 73 71 46 54 42 29 26 28 29 30
28 46 59 67 74 71 72 88 90 94 91 92 99 100 99 99 92 86 75 77 88 30 25 28 42 66 65 66 70 73 74 72 76 74 75 72 64 61 55 41 34 32 34
41 54 62 66 71 66 69 89 90 92 98 90 100 93 97 98 94 85 82 78 84 27 24 25 35 61 71 74 75 80 78 81 79 78 79 75 67 66 71 68 59 56 55
48 59 64 63 65 60 65 83 86 95 96 98 99 92 86 84 87 85 74 75 82 30 29 27 34 62 70 70 76 78 90 90 87 83 81 74 71 73 74 79 77 71 66
53 57 57 55 59 57 78 88 90 98 98 100 95 100 99 95 87 82 75 75 84 35 38 33 31 52 64 73 74 72 78 76 79 80 79 80 67 71 74 77 74 72 70
56 56 55 55 53 54 85 92 87 98 95 98 98 92 100 99 88 88 90 81 87 42 44 41 35 37 49 74 80 72 67 63 67 70 70 64 65 58 61 64 64 63 63
64 56 57 56 46 59 83 92 92 97 99 94 93 100 100 99 95 94 88 90 90 55 45 50 50 62 72 71 80 75 66 56 56 56 58 56 58 55 50 60 61 61 60
68 68 59 57 43 68 91 93 88 82 87 100 100 97 99 98 99 98 97 96 87 70 50 56 55 71 86 81 81 73 66 57 60 56 61 60 55 61 60 59 58 58 57

GFSSE_850_rhum_114.txt.gz
RH
20 18 22 29 35 43 53 59 51 51 57 57 58 68 69 60 51 53 61 64 59 50 44 51 60 66 69 70 72 72 79 78 73 71 79 83 71 65 66 64 62 64 66
18 16 18 21 36 46 54 52 50 54 61 58 62 70 70 61 53 56 59 61 55 50 51 55 62 63 70 69 69 74 72 83 79 78 88 88 72 66 66 65 65 70 72
19 17 18 19 32 49 50 46 44 50 57 64 70 74 70 64 57 59 61 63 58 54 54 59 61 62 68 63 71 67 69 85 85 88 80 84 95 76 73 78 78 78 81
19 20 21 22 38 52 47 46 41 43 51 60 72 76 73 70 64 63 64 65 63 61 60 62 73 75 81 65 80 76 67 76 77 75 73 80 79 80 82 86 77 81 78
18 20 22 23 35 55 51 48 42 40 47 51 62 74 75 75 74 69 69 66 66 77 77 84 86 77 66 70 84 80 71 80 78 78 67 69 79 82 86 88 86 85 80
17 18 23 25 31 53 56 50 48 42 48 53 67 71 82 82 75 72 74 72 66 61 84 91 83 69 75 76 84 78 80 82 77 72 59 67 81 89 82 82 72 69 96
17 18 23 26 28 41 60 56 53 49 48 52 62 63 65 88 83 79 80 77 70 71 85 90 96 80 76 70 72 72 77 74 69 59 48 56 60 87 83 64 27 70 96
17 20 24 33 37 35 60 62 60 57 54 54 56 62 65 65 68 74 60 63 80 78 85 92 88 79 74 68 64 50 59 55 50 44 48 59 61 51 32 20 39 52 64
19 23 24 30 43 45 44 56 60 66 64 60 58 59 54 56 59 56 60 63 63 77 90 95 74 66 64 49 36 40 50 59 56 50 50 38 48 34 28 22 23 40 56
26 25 28 29 42 47 48 53 61 70 75 72 65 66 67 63 58 58 51 72 66 68 90 83 52 53 37 41 58 73 76 74 55 46 35 35 59 16 27 33 50 52 55
26 30 30 32 38 43 53 49 65 80 85 85 81 79 76 74 58 57 56 64 59 77 90 66 42 36 53 70 72 74 79 72 62 44 39 25 16 55 70 34 37 37 58
25 27 31 30 38 42 47 52 55 70 91 93 97 92 84 72 61 59 67 75 61 78 88 50 47 52 75 79 85 84 72 65 60 40 29 16 35 66 58 41 46 54 66
23 28 30 31 38 43 45 48 48 56 80 90 99 98 90 74 63 70 72 76 63 78 84 66 84 80 86 81 82 69 72 63 44 36 21 21 49 86 63 58 35 58 58
27 29 36 35 40 46 53 60 63 64 78 98 93 100 95 87 84 77 71 73 76 74 52 78 91 93 90 82 78 61 73 42 23 22 22 22 78 74 54 63 44 43 31
32 31 35 38 41 48 58 65 74 74 77 97 99 99 99 100 91 81 81 75 82 64 32 74 98 97 87 78 78 64 67 63 59 33 29 34 52 28 35 35 28 25 20
25 32 37 42 44 53 62 70 76 79 77 84 94 98 99 99 95 93 88 79 77 60 27 60 96 93 74 77 78 71 66 67 68 55 31 35 30 24 22 26 27 24 22
19 28 34 44 46 58 69 78 80 78 75 79 85 90 96 99 100 93 95 81 62 56 36 66 93 80 73 76 75 71 69 69 70 64 37 31 26 25 24 44 32 26 25
19 18 31 44 50 59 72 80 76 71 78 73 75 80 94 99 100 98 97 88 71 73 43 68 86 75 75 72 71 74 71 71 70 70 61 43 32 26 25 28 31 24 27
19 17 22 42 48 56 73 75 74 77 82 83 84 93 96 99 100 100 100 97 80 87 42 60 83 73 74 74 70 75 73 70 74 72 67 48 36 32 31 29 26 27 31
18 19 20 43 48 60 72 74 76 95 94 90 89 98 98 100 100 100 100 90 65 82 46 47 80 74 71 75 71 77 75 76 79 73 71 52 61 49 46 38 34 34 35
19 26 26 42 53 65 69 70 72 95 96 96 100 86 93 100 99 100 94 90 70 88 43 34 77 71 76 77 76 83 81 84 78 77 77 75 72 70 72 67 59 52 44
21 30 32 48 52 64 64 66 65 85 93 96 98 99 100 100 99 100 89 92 70 83 55 28 66 74 77 76 78 79 90 89 82 80 80 79 75 77 76 79 68 62 61
20 32 46 55 54 64 68 68 77 90 97 100 100 100 94 98 98 99 98 99 88 83 56 26 40 60 73 80 76 71 86 84 83 82 81 81 78 76 75 72 61 63 63
25 41 64 65 59 68 74 72 73 85 95 98 97 87 90 96 96 94 91 86 79 81 55 25 31 48 60 75 80 74 67 65 80 81 79 78 68 70 68 70 58 59 60
29 41 62 69 67 73 76 73 74 86 93 92 96 100 84 94 98 95 86 91 88 88 75 28 27 33 60 71 68 76 71 65 60 57 62 60 69 57 60 57 54 59 57
39 42 66 70 74 74 80 80 73 89 95 90 99 99 100 99 96 97 90 82 76 84 84 38 28 28 44 68 66 64 70 68 56 55 50 53 52 57 54 52 52 58 61

GFSSE_850_rhum_117.txt.gz
RH
20 14 14 17 21 30 42 53 63 58 54 53 63 71 66 60 57 57 55 64 71 70 63 65 68 69 73 75 75 72 73 67 71 74 77 79 71 72 74 73 73 73 72
16 14 15 14 16 33 39 52 58 54 53 57 70 72 69 61 55 53 59 63 63 57 59 63 67 73 74 74 75 72 73 72 74 78 84 80 67 65 62 60 58 62 65
15 14 16 17 18 33 44 50 53 55 60 64 72 74 71 62 54 58 62 63 56 65 62 64 65 73 67 68 69 70 70 78 78 82 81 97 80 65 65 68 68 70 71
16 16 17 19 20 35 50 49 49 50 56 64 70 75 72 63 58 65 66 61 55 66 89 80 73 66 63 61 66 60 66 78 82 79 90 95 85 75 79 77 77 79 79
16 16 17 19 20 40 53 49 46 44 43 61 67 71 72 66 60 65 69 63 59 60 85 74 72 69 68 64 72 69 64 76 76 78 91 96 95 81 84 83 77 74 76
17 18 18 19 21 40 54 52 48 45 44 45 58 71 75 72 73 78 82 77 75 87 92 79 73 85 68 70 77 75 66 77 76 74 83 76 86 83 87 86 82 76 77
18 17 20 20 20 31 56 54 51 46 48 45 48 69 71 61 90 76 89 78 80 82 82 80 80 74 74 79 81 78 72 79 73 76 90 92 78 81 80 79 84 83 86
20 19 24 23 22 23 46 58 57 53 50 49 54 70 53 54 75 60 68 66 63 60 69 80 84 70 82 88 84 79 76 79 77 68 88 96 62 69 78 63 58 56 59
25 23 27 29 25 26 28 50 62 61 57 57 60 67 60 58 69 47 71 59 68 76 62 80 85 73 89 87 82 80 77 73 63 72 86 97 71 66 41 29 32 37 69
29 25 28 31 33 32 33 35 56 68 67 64 68 61 63 67 58 53 63 61 54 46 69 78 83 80 89 83 74 61 56 56 54 52 79 94 75 38 51 16 43 62 47
30 28 30 34 37 39 39 41 43 60 73 74 74 71 70 70 62 66 56 60 57 48 60 77 86 90 90 66 46 59 72 66 56 50 64 73 96 78 47 44 60 57 57
28 26 26 34 40 43 46 46 51 53 73 82 81 80 74 71 69 61 62 69 56 54 56 70 89 84 62 63 76 82 77 64 50 42 55 55 85 98 76 59 45 46 39
21 28 26 31 39 44 44 45 51 52 75 86 86 87 80 79 72 67 70 72 61 58 48 60 89 72 72 77 80 79 67 64 65 45 57 73 83 97 49 23 28 32 51
28 33 34 36 39 41 46 49 46 54 86 98 93 99 93 88 83 78 69 71 73 76 61 69 67 75 84 77 82 80 75 70 58 57 40 79 96 91 19 22 28 27 36
28 32 37 40 42 45 49 51 54 59 64 97 99 99 97 98 93 76 76 73 78 80 73 66 53 76 92 84 84 81 73 39 30 43 74 84 74 38 30 56 53 44 48
17 21 27 36 47 48 48 51 57 62 68 90 98 96 95 98 95 82 74 86 77 71 79 52 38 89 94 95 84 80 67 57 44 41 54 50 26 25 76 99 100 88 37
13 14 18 20 40 50 52 53 60 67 75 83 84 91 92 98 99 91 90 91 87 76 78 63 65 99 100 89 85 82 68 69 66 50 36 34 33 50 82 76 61 41 30
12 14 15 20 20 50 55 54 61 72 78 85 80 80 97 98 98 100 100 96 92 81 81 52 51 98 100 80 85 80 70 72 74 61 37 41 69 90 49 44 36 28 29
15 16 14 19 21 33 60 55 65 77 80 78 72 72 85 100 100 100 100 100 97 81 84 52 61 74 92 77 84 78 73 74 77 70 62 46 40 54 66 32 27 27 30
14 16 16 20 23 33 61 58 74 85 78 73 78 74 76 96 93 99 99 99 99 88 90 52 59 94 82 74 83 80 78 77 80 75 72 57 46 43 39 38 34 32 34
21 19 22 23 26 39 60 63 76 76 71 73 83 86 91 93 99 100 100 96 100 99 87 64 66 87 77 77 78 84 79 81 85 78 75 58 60 58 52 46 34 39 39
21 24 39 35 39 47 61 62 67 66 60 78 86 95 91 99 99 100 100 92 98 99 91 73 56 87 77 77 82 96 99 92 89 81 77 76 72 72 70 67 60 61 68
26 30 39 46 54 66 68 72 72 68 66 91 94 99 98 97 99 100 100 100 95 100 91 73 62 84 76 78 75 83 96 86 94 82 80 80 79 76 73 72 67 67 71
33 34 42 58 67 72 72 71 67 48 86 96 93 99 99 99 93 100 100 98 98 99 83 81 41 79 70 72 79 75 74 70 81 92 81 78 79 76 78 74 60 67 68
44 39 50 67 72 77 75 68 65 49 87 94 95 98 98 99 99 99 97 94 100 98 72 82 40 76 76 70 76 78 74 66 60 63 80 72 73 68 64 63 61 67 66
61 59 61 72 83 89 82 71 64 51 83 91 98 99 98 97 100 100 100 100 99 88 73 88 42 35 60 72 66 72 71 68 61 58 53 75 65 57 61 60 56 60 62

GFSSE_850_rhum_120.txt.gz
RH
38 14 13 13 18 22 32 48 56 62 66 70 72 71 67 61 58 56 58 63 68 80 78 74 71 70 72 72 69 64 62 68 77 77 78 80 79 79 83 84 90 92 82
31 14 15 14 15 20 35 45 53 59 58 62 72 74 69 62 58 58 60 66 74 89 73 73 70 73 78 77 72 70 65 68 74 77 75 87 76 77 78 88 88 72 70
31 15 17 18 18 18 34 46 55 54 51 53 68 74 71 65 63 63 66 85 91 88 80 74 74 75 73 72 69 65 64 65 70 76 70 92 94 66 64 61 61 65 66
16 14 16 18 19 19 29 49 54 49 46 53 69 76 73 66 62 64 78 93 89 80 77 78 78 78 71 70 64 57 59 67 72 71 74 96 98 71 70 71 70 70 72
16 15 16 18 20 20 29 45 49 49 50 57 67 77 75 68 66 70 86 89 82 79 74 77 77 77 70 69 62 57 63 71 73 73 67 78 94 82 78 77 78 79 85
18 16 16 19 20 20 26 41 45 48 43 53 64 74 76 72 72 87 92 88 92 79 77 73 73 75 73 69 71 65 65 70 67 66 68 92 100 89 84 83 79 78 76
19 16 17 20 22 23 29 39 46 46 45 48 57 68 75 76 70 44 60 65 73 95 79 75 69 79 73 73 79 73 69 76 72 68 75 93 98 82 83 83 76 76 82
21 17 17 22 24 30 38 44 50 49 46 46 51 68 77 75 72 61 58 52 39 83 66 69 74 71 70 85 85 80 78 83 74 69 69 91 98 88 85 85 83 80 84
22 22 18 20 24 31 40 51 54 55 51 47 53 56 71 75 62 50 61 46 57 75 48 58 72 74 74 90 92 86 87 82 73 68 68 90 96 93 84 81 81 82 81
24 26 22 21 25 27 35 48 58 59 57 54 56 60 70 75 64 60 61 57 54 49 48 52 81 82 87 97 92 91 88 83 70 72 67 88 92 98 66 58 57 42 45
27 28 28 22 26 31 35 41 56 64 64 62 62 67 73 69 69 78 63 59 57 52 46 43 58 80 96 98 90 89 80 75 75 70 72 81 85 72 38 24 28 43 22
36 30 32 27 26 33 36 41 52 66 70 72 74 70 84 91 96 98 95 68 60 56 59 71 58 57 98 97 88 68 81 80 75 73 84 89 89 91 66 43 20 44 64
58 74 43 34 30 36 38 44 52 66 87 91 98 91 84 98 98 95 97 69 68 70 76 81 77 74 99 89 88 92 90 89 75 74 92 94 95 96 39 55 73 64 83
50 65 70 37 35 37 42 49 51 69 78 80 91 92 87 93 99 99 99 73 76 78 80 82 74 68 91 82 89 96 93 78 78 76 88 98 88 92 87 88 98 86 66
34 55 38 38 36 41 42 50 54 60 73 86 69 85 85 91 99 94 76 68 71 75 89 88 91 95 94 97 100 100 94 87 84 74 89 94 92 85 99 99 100 76 50
30 33 43 20 29 38 45 47 52 58 60 77 62 66 85 93 90 84 76 86 78 93 95 90 98 93 93 99 100 98 95 84 83 82 86 97 92 74 97 99 65 33 31
20 21 40 25 16 24 35 50 56 56 58 68 65 69 92 97 99 95 85 90 86 89 99 97 97 92 92 99 100 98 92 87 82 88 86 92 95 93 95 93 53 32 37
19 20 26 38 17 19 37 75 61 60 60 66 68 71 88 98 100 100 100 92 86 87 98 90 97 98 90 99 98 92 88 89 92 86 79 80 85 89 96 76 58 45 49
21 22 27 21 18 19 34 91 99 67 58 68 73 92 88 92 98 96 100 100 99 92 98 88 87 89 94 91 96 89 85 89 95 84 80 83 83 82 86 55 76 62 42
29 21 17 14 16 43 66 95 99 68 62 69 74 81 85 90 94 99 99 100 98 99 98 87 86 87 86 82 87 92 89 90 93 90 90 83 84 85 81 92 56 54 32
44 39 23 24 27 55 71 94 98 70 68 73 82 80 64 75 98 97 99 100 100 100 98 93 81 85 82 85 85 93 96 97 96 98 99 81 83 87 88 87 86 81 38
56 38 40 51 59 78 79 96 92 80 72 74 80 68 61 76 79 94 100 99 100 100 100 100 89 83 83 91 86 86 98 98 100 100 98 84 86 85 88 91 87 85 80
56 69 71 71 82 78 96 95 98 80 75 82 73 59 77 94 90 90 96 100 100 99 99 99 94 83 86 92 82 71 77 77 87 98 100 96 94 90 87 92 93 87 74
67 76 79 80 54 69 98 96 98 82 75 68 52 49 96 98 97 98 98 100 100 100 100 98 95 80 81 91 82 70 66 60 75 89 95 96 96 96 96 93 68 63 83
67 59 88 92 46 91 99 100 100 100 96 83 49 65 98 99 98 98 99 98 99 100 99 99 100 90 88 86 82 78 72 76 72 63 75 86 93 92 92 69 66 70 94
60 76 57 72 88 97 99 100 100 100 100 89 87 97 96 98 84 87 97 100 100 100 100 100 91 89 90 86 83 84 77 72 66 63 56 75 79 88 91 67 68 85 96

GFSSE_850_rhum_123.txt.gz
RH
32 19 14 13 14 18 26 38 46 55 61 67 68 66 64 61 58 57 58 63 68 70 77 80 76 74 72 69 63 58 58 62 63 68 72 75 76 83 84 86 92 87 84
32 15 14 15 14 17 28 37 42 52 60 64 66 66 68 66 62 61 64 71 73 74 78 77 74 69 66 66 65 55 53 60 68 69 71 74 78 82 89 95 93 78 73
34 20 15 17 18 18 28 41 42 49 56 57 60 67 73 70 64 62 65 74 76 80 77 72 72 75 74 69 63 55 54 64 68 68 79 91 89 76 84 82 65 67 69
35 20 16 18 19 19 22 37 42 47 49 50 57 72 74 71 67 67 70 75 87 83 75 71 72 76 79 75 64 58 57 60 61 73 84 83 97 67 62 64 67 65 72
36 28 18 17 19 21 24 35 39 40 41 49 61 74 76 73 68 68 77 87 88 83 76 75 77 76 70 69 66 54 59 62 63 70 81 85 89 80 71 71 75 80 83
35 42 18 17 20 21 26 37 44 42 39 44 60 74 75 74 70 84 79 57 99 83 92 79 74 72 70 68 62 59 68 56 58 76 69 64 97 83 81 80 84 81 76
38 45 16 18 20 20 24 35 44 46 42 41 55 67 76 75 70 68 60 42 50 49 65 89 74 70 70 68 72 61 70 59 71 57 77 79 89 84 83 83 76 70 75
45 53 15 18 21 21 23 30 42 47 46 45 53 62 75 79 73 66 51 46 60 46 49 64 72 71 75 72 77 72 69 68 63 56 75 71 85 89 84 80 74 75 78
57 34 19 18 21 23 24 29 40 48 48 46 50 67 74 77 75 71 64 59 51 61 49 51 73 71 75 73 84 79 73 59 61 60 88 73 81 92 86 80 77 77 78
64 41 31 21 21 24 24 27 38 49 52 50 50 67 74 76 80 76 63 68 56 57 52 66 65 65 77 82 85 83 77 66 64 57 81 82 77 97 92 84 78 77 78
67 42 37 27 23 25 26 26 33 50 55 56 56 60 68 84 89 84 65 70 61 58 61 57 66 70 71 87 91 88 74 63 63 55 73 71 65 88 78 75 74 74 67
61 75 66 48 31 29 30 30 32 42 56 60 61 70 67 86 96 98 92 80 69 67 58 62 72 70 69 75 97 91 54 63 59 60 71 68 58 80 55 40 44 36 25
41 59 76 86 49 40 42 33 37 73 66 78 91 95 81 85 92 94 94 94 79 72 71 74 74 82 86 98 95 91 78 69 60 66 72 54 91 91 48 31 35 39 32
25 45 66 82 90 62 84 43 39 63 92 93 96 89 84 79 88 98 89 91 92 86 77 67 72 70 81 91 85 80 78 65 61 74 76 58 86 99 96 50 35 32 81
28 37 55 78 93 86 90 52 41 78 70 89 93 92 88 95 89 94 88 90 90 96 84 68 70 70 88 72 76 77 81 68 66 70 90 82 88 95 96 84 41 93 76
28 36 50 67 85 71 77 46 44 49 91 76 92 93 89 93 96 98 90 86 93 95 82 78 69 82 88 78 81 80 74 71 70 74 89 92 93 92 90 94 98 98 93
20 25 33 51 68 87 56 47 54 49 70 93 93 91 90 86 89 99 89 88 87 80 82 76 95 80 85 88 82 85 76 74 72 73 86 96 92 86 89 91 81 96 78
18 20 21 22 42 68 84 57 51 54 62 87 95 90 76 83 88 90 94 88 91 89 94 90 94 92 90 80 91 84 75 74 74 77 75 86 91 93 87 89 91 92 74
16 18 20 21 27 42 68 87 80 53 72 78 92 90 61 86 86 94 94 86 97 93 90 96 93 90 76 80 88 86 74 72 76 71 72 78 81 84 94 87 98 69 37
24 25 30 30 30 38 54 78 87 93 86 98 90 97 96 90 89 92 96 97 98 97 100 96 97 89 79 78 90 84 72 72 78 73 71 71 74 79 84 77 45 39 31
36 42 40 42 39 40 48 70 83 98 96 99 99 97 99 100 95 94 99 98 99 98 97 93 98 87 79 79 84 82 77 84 82 75 74 68 73 77 76 92 67 84 28
41 46 53 53 55 57 55 69 79 98 99 99 98 90 87 95 99 88 94 90 92 100 99 100 99 96 84 80 85 84 88 89 86 83 83 73 71 71 74 81 84 78 77
47 65 64 56 57 67 68 78 95 100 96 98 99 85 73 80 87 97 85 89 99 98 100 98 99 94 85 80 80 78 86 81 92 87 90 80 73 72 71 77 82 78 75
50 72 72 69 65 72 83 87 95 98 99 99 99 88 80 84 83 98 93 97 98 98 100 99 99 91 90 88 87 79 70 66 84 94 94 81 77 75 76 76 82 86 87
52 61 81 83 78 86 95 89 95 99 98 96 97 95 82 79 94 99 94 99 98 100 99 100 100 100 86 90 83 81 65 60 68 74 85 86 81 77 78 80 80 92 75
52 64 64 85 92 98 99 96 97 93 93 92 99 100 97 90 96 95 95 94 99 100 99 100 99 100 79 92 81 78 68 63 71 66 70 74 78 77 74 82 94 97 86